Location: Banff
(51.1667°N, 115.5667°W)
Time: 01:38:53
(UTC+00:00)

deb Explorer IX - Pass Details

Date: 29 November 2020
Orbit: 536 x 1104 km, 38.8° (Epoch: 25 January)

Event Time Altitude Azimuth Distance (km) Brightness Sun altitude
Rises 01:22:58 0° 233° (SW) 3,458 ? -15.5°
Reaches altitude 10° 01:26:20 10° 217° (SW) 2,402 ? -16.0°
Maximum altitude 01:30:13 19° 173° (S) 1,711 ? -16.6°
Enters shadow 01:33:18 12° 132° (SE) 2,033 ? -17.0°
